[[{"header":{"parameterUnit":"m.s-1","parameterCategory":1,"la1":30.2991,"la2":30.254,"lo1":-89.0895,"lo2":-89.0444,"dy":0.0017,"dx":0.0017,"nx":28,"ny":28,"refTime":"2024-06-23T09:00:00:Z","depth":0,"parameterNumber":2,"parameterNumberName":"U-component_of_WINDS"},"data":[0,0,0,0,0,0,0,0,0,0,0,0,0,0,0,0,0,0,0,0,0,0,0,0,0,0,0,0,0,0,0,0,0,0,0,0,0,0,0,0,0,0,0,0,0,0,0,0,0,0,0,0,0,0,0,0,0,0,0.6222,0.6223,0,0.6347,0.6348,0.6349,0.6412,0.6412,0.6412,0.6412,0.6538,0.6541,0.6544,0,0,0,0,0,0,0,0,0,0,0,0,0,0.6035,0.6039,0.6222,0.6224,0.6225,0.6346,0.6348,0.635,0.6412,0.6412,0.6412,0.6412,0.6537,0.6541,0.6545,0,0,0,0,0,0,0,0,0,0,0,0,0,0.6134,0.604,0.6222,0.6271,0.6276,0.6346,0.6348,0.635,0.6412,0.6412,0.6412,0.6412,0.6535,0.654,0.6545,0.6576,0,0,0.6561,0.6563,0,0,0,0,0,0,0,0,0.6128,0.6141,0.6262,0.6267,0.6274,0.6364,0.6329,0.6426,0.6412,0.636,0.6412,0.6412,0.648,0.6489,0.6513,0.6581,0.6587,0.6561,0.6564,0.6566,0.6568,0,0,0,0,0,0,0,0.6121,0.6136,0.6271,0.6264,0.6271,0.6286,0.63,0.6347,0.6418,0.6365,0.6369,0.6383,0.6483,0.6508,0.6516,0.6589,0.6561,0.6565,0.6568,0.657,0.6688,0.6688,0,0,0,0,0,0,0.6107,0.6129,0.6267,0.6275,0.62,0.6289,0.6305,0.6335,0.6418,0.6431,0.6383,0.6386,0.6499,0.651,0.6521,0.6561,0.6566,0.6571,0.6574,0.6688,0.6688,0.6688,0,0,0,0,0,0,0.6103,0.6118,0.6262,0.6204,0.6223,0.6292,0.6325,0.6337,0.6362,0.6432,0.6445,0.6395,0.65,0.6514,0.6561,0.6566,0.6573,0.6578,0.6687,0.6688,0.6688,0.6642,0,0,0,0,0,0,0.6097,0.6117,0.6129,0.6203,0.6226,0.6301,0.6326,0.634,0.637,0.6375,0.6447,0.6459,0.6501,0.6553,0.6566,0.6574,0.6582,0.6687,0.6687,0.6688,0.6644,0.6641,0.6639,0,0,0,0,0,0.609,0.6112,0.613,0.6146,0.6244,0.6302,0.6314,0.6362,0.6371,0.6384,0.6428,0.6456,0.6564,0.6558,0.6573,0.6582,0.6687,0.6687,0.6688,0.6645,0.6642,0.6639,0,0,0,0,0,0,0.6036,0.6122,0.6143,0.619,0.6238,0.6312,0.633,0.6357,0.6404,0.6406,0.6464,0.6479,0.6521,0.6556,0.6548,0.6615,0.6628,0.6631,0.659,0.6588,0.6585,0.6576,0.6586,0,0,0,0,0,0.603,0.607,0.6143,0.6177,0.62,0.626,0.6288,0.632,0.6372,0.6393,0.6441,0.649,0.6535,0.6563,0.6609,0.6649,0.6665,0.6662,0.666,0.6657,0.6659,0.6682,0.6682,0.6689,0.6689,0.6689,0,0,0.6017,0.6069,0.6091,0.6167,0.6209,0.6248,0.6277,0.6319,0.6349,0.6399,0.6447,0.6484,0.6543,0.6586,0.6608,0.6617,0.6661,0.6657,0.6655,0.6659,0.6683,0.6682,0.6681,0.6689,0.6689,0.6689,0,0,0.6013,0.6057,0.609,0.613,0.6192,0.6232,0.624,0.631,0.6336,0.6386,0.6424,0.646,0.6536,0.6576,0.6606,0.6616,0.6644,0.6629,0.6616,0.6638,0.6637,0.6637,0.6641,0.6641,0.6631,0.6631,0.6631,0,0.5989,0.6052,0.6103,0.6142,0.6174,0.6222,0.6255,0.6291,0.6364,0.6385,0.6394,0.649,0.6532,0.6586,0.6588,0.6611,0.6621,0.6622,0.6634,0.6634,0.6634,0.6638,0.6639,0.6629,0.6629,0.6629,0.663,0,0.6019,0.6062,0.608,0.615,0.6184,0.622,0.6276,0.6304,0.6333,0.6372,0.642,0.6473,0.6529,0.6544,0.6573,0.6602,0.6605,0.6623,0.6637,0.6631,0.6635,0.6637,0.6626,0.6627,0.6627,0.6628,0,0,0.5986,0.6083,0.6089,0.6121,0.6193,0.6226,0.6263,0.6318,0.6341,0.639,0.6422,0.6484,0.6501,0.6535,0.6569,0.6588,0.6592,0.6604,0.6606,0.6599,0.6625,0.6612,0.6612,0.661,0.6611,0.6611,0.662,0,0.5993,0.6063,0.611,0.6161,0.62,0.6245,0.6278,0.6324,0.6361,0.6399,0.644,0.6483,0.6502,0.6522,0.6543,0.6587,0.6598,0.6587,0.664,0.6641,0.6624,0.6615,0.6601,0.6607,0.6623,0.6623,0.6623,0,0.6011,0.6058,0.6113,0.618,0.6198,0.6226,0.628,0.6316,0.6369,0.6395,0.6432,0.6466,0.6506,0.6517,0.6573,0.6564,0.6588,0.6613,0.6614,0.6621,0.6632,0.6621,0.6611,0.6611,0.6626,0.6626,0.6626,0,0.5981,0.6058,0.6102,0.6127,0.6206,0.6224,0.6258,0.6311,0.6341,0.6387,0.6407,0.6458,0.6485,0.6523,0.657,0.6573,0.662,0.6635,0.6642,0.6641,0.665,0.6649,0.6643,0.6666,0.6666,0.6666,0.6666,0,0.5984,0.6016,0.6089,0.6115,0.6152,0.6204,0.6239,0.6276,0.6323,0.6356,0.6398,0.6428,0.6488,0.6526,0.6562,0.6602,0.6615,0.6636,0.6645,0.6632,0.6629,0.6649,0.665,0.6666,0.6666,0.6666,0.6666,0,0.5957,0.6008,0.6057,0.6127,0.6145,0.6169,0.6229,0.6255,0.6294,0.6336,0.6349,0.6409,0.6455,0.6505,0.6568,0.6593,0.6631,0.6644,0.6613,0.6618,0.6622,0.6621,0.6628,0.6632,0.6652,0.6651,0.6651,0,0.5956,0.5982,0.6054,0.608,0.6112,0.6153,0.6184,0.6235,0.6265,0.6327,0.6346,0.6395,0.6438,0.6509,0.6558,0.6606,0.6621,0.662,0.6629,0.6614,0.6621,0.6618,0.6621,0.6618,0.6617,0.6617,0.6617,0,0.5948,0.5971,0.6014,0.6065,0.6101,0.6144,0.6188,0.6206,0.6267,0.6298,0.6346,0.6378,0.6442,0.649,0.6544,0.6578,0.6607,0.6613,0.6618,0.6605,0.6585,0.6595,0.6606,0.6613,0.6613,0.6614,0.6614,0.6614,0.5934,0.5959,0.6013,0.6059,0.6098,0.6138,0.6166,0.6208,0.6249,0.6305,0.6333,0.638,0.6432,0.6507,0.654,0.6577,0.6586,0.6592,0.6594,0.6594,0.6591,0.6579,0.6587,0.6587,0.6587,0.6588,0.6588,0,0.5928,0.5965,0.6007,0.6068,0.6103,0.6128,0.6177,0.6206,0.6247,0.6293,0.6333,0.6387,0.6434,0.6486,0.6535,0.6555,0.6569,0.6566,0.6565,0.6572,0.658,0.6571,0.6554,0.6554,0.6554,0.6554,0.6554,0.6554,0.5929,0.5972,0.6001,0.6063,0.61,0.6147,0.6173,0.621,0.6247,0.6305,0.6344,0.6378,0.6426,0.6479,0.6522,0.6537,0.6553,0.6545,0.6563,0.6569,0.6572,0.6575,0.6567,0.6548,0.6548,0.6553,0.6553,0.6553]},{"header":{"parameterUnit":"m.s-1","parameterCategory":1,"la1":30.2991,"la2":30.254,"lo1":-89.0895,"lo2":-89.0444,"dy":0.0017,"dx":0.0017,"nx":28,"ny":28,"refTime":"2024-06-23T09:00:00:Z","depth":0,"parameterNumber":3,"parameterNumberName":"V-component_of_WINDS"},"data":[0,0,0,0,0,0,0,0,0,0,0,0,0,0,0,0,0,0,0,0,0,0,0,0,0,0,0,0,0,0,0,0,0,0,0,0,0,0,0,0,0,0,0,0,0,0,0,0,0,0,0,0,0,0,0,0,0,0,4.5074,4.5074,0,4.504,4.504,4.5039,4.4983,4.4982,4.498,4.4979,4.4944,4.4945,4.4945,0,0,0,0,0,0,0,0,0,0,0,0,0,4.5091,4.5091,4.5074,4.5074,4.5073,4.504,4.504,4.5039,4.4983,4.4981,4.498,4.4979,4.4944,4.4945,4.4945,0,0,0,0,0,0,0,0,0,0,0,0,0,4.5073,4.5091,4.5074,4.5041,4.5038,4.504,4.504,4.5039,4.4983,4.4981,4.498,4.4978,4.4944,4.4945,4.4945,4.4977,0,0,4.4945,4.4945,0,0,0,0,0,0,0,0,4.5074,4.5072,4.5047,4.5044,4.504,4.5014,4.5033,4.5018,4.4983,4.5004,4.4979,4.4978,4.4969,4.4967,4.4964,4.4975,4.4973,4.4945,4.4945,4.4945,4.4945,0,0,0,0,0,0,0,4.5075,4.5074,4.5061,4.5046,4.5042,4.5028,4.5024,4.503,4.4996,4.5002,4.4998,4.4995,4.4967,4.4964,4.4963,4.4973,4.4945,4.4945,4.4945,4.4945,4.5009,4.501,0,0,0,0,0,0,4.5081,4.5075,4.5062,4.506,4.5053,4.5029,4.5024,4.5024,4.4995,4.499,4.4996,4.4992,4.4965,4.4963,4.4961,4.4997,4.4945,4.4945,4.4945,4.5007,4.5009,4.5011,0,0,0,0,0,0,4.5082,4.5081,4.5063,4.5066,4.5063,4.5031,4.5031,4.5024,4.5021,4.4991,4.4984,4.4999,4.4963,4.4961,4.4973,4.4995,4.4945,4.4945,4.5005,4.5008,4.501,4.5068,0,0,0,0,0,0,4.5083,4.5081,4.5093,4.5067,4.5063,4.5076,4.5032,4.5025,4.5021,4.5016,4.4992,4.4987,4.4962,4.4973,4.4973,4.4994,4.4945,4.5003,4.5006,4.5009,4.5064,4.5072,4.5079,0,0,0,0,0,4.5084,4.5111,4.5094,4.5093,4.5077,4.5077,4.5075,4.5046,4.5023,4.5035,4.5016,4.4988,4.4993,4.4975,4.4975,4.4995,4.5001,4.5005,4.5009,4.5061,4.5071,4.5079,0,0,0,0,0,0,4.514,4.5107,4.5088,4.5107,4.5096,4.5068,4.5081,4.5057,4.5051,4.5047,4.5011,4.5006,4.5023,4.501,4.4991,4.5025,4.4993,4.4997,4.5032,4.5042,4.5049,4.5051,4.4945,0,0,0,0,0,4.5155,4.5158,4.5129,4.5149,4.5144,4.5114,4.5113,4.5091,4.5078,4.5073,4.5054,4.5042,4.504,4.504,4.5038,4.5062,4.5056,4.5077,4.5084,4.509,4.5094,4.5106,4.5115,4.5023,4.5023,4.5023,0,0,4.5185,4.5168,4.5172,4.516,4.5148,4.5152,4.511,4.5116,4.5118,4.5073,4.5083,4.507,4.5054,4.5073,4.508,4.5063,4.5118,4.5095,4.5101,4.51,4.5111,4.512,4.5127,4.5026,4.5025,4.5025,0,0,4.5243,4.523,4.5245,4.5234,4.5218,4.5197,4.5201,4.5177,4.5166,4.5176,4.5142,4.5145,4.5144,4.5134,4.5129,4.5183,4.5157,4.5184,4.5223,4.5235,4.5242,4.5249,4.5268,4.5275,4.5187,4.5187,4.5188,0,4.5283,4.5287,4.5256,4.5264,4.526,4.522,4.5235,4.5226,4.5209,4.5208,4.5189,4.5186,4.5173,4.5189,4.5202,4.5199,4.5203,4.5186,4.5244,4.525,4.5255,4.5273,4.5281,4.5191,4.519,4.519,4.519,0,4.5337,4.5341,4.5356,4.534,4.5338,4.535,4.532,4.5322,4.5301,4.5283,4.5294,4.5276,4.5269,4.5271,4.5251,4.5284,4.5274,4.5251,4.5217,4.5268,4.5284,4.5291,4.5195,4.5194,4.5193,4.5192,0,0,4.5429,4.5397,4.5402,4.5395,4.5374,4.5376,4.5386,4.538,4.5381,4.5372,4.5379,4.5379,4.5357,4.5351,4.533,4.5341,4.5385,4.5315,4.5314,4.5328,4.5421,4.5439,4.5447,4.5368,4.5369,4.537,4.5422,0,4.5481,4.5497,4.5469,4.5491,4.5494,4.5456,4.5465,4.5453,4.5437,4.5438,4.5419,4.542,4.5391,4.5387,4.5397,4.5378,4.5403,4.5374,4.5375,4.5375,4.5379,4.5456,4.5474,4.5524,4.5428,4.5429,4.543,0,4.5545,4.5538,4.556,4.5538,4.5538,4.5547,4.5539,4.554,4.5525,4.5513,4.5507,4.5481,4.549,4.5459,4.547,4.545,4.5449,4.544,4.5441,4.544,4.5405,4.5456,4.5539,4.5547,4.544,4.5439,4.5438,0,4.5609,4.5606,4.5618,4.5613,4.5588,4.5595,4.5584,4.5569,4.5567,4.556,4.5558,4.5552,4.5549,4.5545,4.5519,4.5498,4.5533,4.55,4.5523,4.5524,4.5531,4.5531,4.5616,4.5532,4.5532,4.5532,4.5531,0,4.567,4.5685,4.5647,4.5655,4.5671,4.5639,4.5656,4.5642,4.5628,4.5633,4.56,4.5605,4.557,4.5571,4.5551,4.5563,4.5562,4.5552,4.5547,4.5555,4.5556,4.5553,4.5549,4.5533,4.5533,4.5533,4.5532,0,4.5744,4.5719,4.5731,4.5706,4.57,4.5713,4.5691,4.5698,4.568,4.5686,4.5686,4.5657,4.5657,4.5631,4.5625,4.5611,4.5633,4.5621,4.5637,4.5633,4.5658,4.5656,4.5743,4.5753,4.5664,4.5665,4.5665,0,4.5785,4.5796,4.5772,4.5773,4.5764,4.5766,4.5764,4.5733,4.5732,4.5717,4.5726,4.5723,4.5719,4.5721,4.57,4.5695,4.5683,4.5714,4.5682,4.569,4.5683,4.5683,4.5683,4.572,4.5721,4.5722,4.5723,0,4.586,4.5847,4.5845,4.5839,4.5837,4.5831,4.5823,4.5825,4.5792,4.5793,4.5792,4.5789,4.5784,4.5782,4.5773,4.5763,4.5738,4.5733,4.5739,4.5747,4.5756,4.5751,4.5655,4.5731,4.5731,4.573,4.5729,4.5729,4.5918,4.5926,4.591,4.5909,4.59,4.5893,4.5898,4.5881,4.588,4.5873,4.5855,4.5858,4.5844,4.583,4.5822,4.5824,4.5808,4.5816,4.5818,4.582,4.5824,4.5756,4.5822,4.5822,4.5822,4.5821,4.5821,0,4.5991,4.5979,4.5979,4.5968,4.5967,4.5944,4.5934,4.5935,4.5938,4.5927,4.5924,4.5923,4.5921,4.59,4.5896,4.5901,4.589,4.5901,4.59,4.5898,4.5839,4.5835,4.591,4.591,4.591,4.591,4.591,4.591,4.6028,4.604,4.6026,4.6033,4.6021,4.6024,4.602,4.6013,4.6005,4.6006,4.6004,4.599,4.5976,4.597,4.5967,4.5961,4.596,4.5976,4.5966,4.5911,4.5902,4.5894,4.589,4.5976,4.5976,4.6025,4.6025,4.6026]}]]